Home > Time Zones > World Clock > Weather > Japan > Naha > Past weeks

Flag Weather past 2 weeks in Naha, Okinawa, Japan

Now
73 °F

Passing clouds.


Feels Like: 76 °F
Forecast: 69 / 78 °F
Wind: 8 mph from East

Location: Naha Airport

Current Time: Nov 21, 2014 at 5:51:03 PM

Latest Report: Nov 21, 2014 at 5:30 PM


Visibility: N/A

Pressure: 30.07 "Hg

Humidity: 61%

Dew point: 59 °F

Location of NahaLocation

Historic Weather in Naha — Graph

°F

Naha temperature yesterday

Maximum temperature yesterday: 77 °F (at 11:30 AM)
Minimum temperature yesterday: 66 °F (at 5:00 AM)
Average temperature yesterday: 71 °F

Past Weeks' High & Low Weather Summary

 TemperatureHumidityPressure
High81 °F (Nov 9, 1:00 PM)94% (Nov 8, 11:00 AM)30.24 "Hg (Nov 8, 11:00 AM)
Low64 °F (Nov 21, 4:30 AM)41% (Nov 19, 10:00 AM)29.92 "Hg (Nov 11, 1:00 PM)
Average72 °F62%30.07 "Hg
* Reported Nov 6 5:00 PM — Nov 21 5:00 PM, Naha, Weather by CustomWeather, © 2014

Note: Actual official high and low records may vary slightly from our data, if they occured in-between our weather recording intervals... More about our weather records

Advertising

Naha weather history for previous 24 hours

 ConditionsComfort  
Time TempWeatherWind HumidityBarometerVisibility
5:00 PM
Nov 21
75 °FScattered clouds.10 mph57%30.04 "HgN/A
4:30 PM75 °FPassing clouds.13 mph57%30.04 "HgN/A
4:00 PM75 °FPassing clouds.12 mph57%30.04 "HgN/A
3:30 PM77 °FPartly sunny.12 mph57%30.04 "HgN/A
3:00 PM77 °FScattered clouds.14 mph57%30.07 "HgN/A
2:30 PM77 °FPassing clouds.14 mph57%30.07 "HgN/A
2:00 PM75 °FScattered clouds.14 mph61%30.07 "HgN/A
1:30 PM79 °FScattered clouds.13 mph54%30.07 "HgN/A
1:00 PM79 °FScattered clouds.10 mph54%30.07 "HgN/A
12:30 PM77 °FScattered clouds.14 mph54%30.09 "HgN/A
12:00 PM75 °FScattered clouds.13 mph61%30.09 "HgN/A
11:30 AM77 °FScattered clouds.13 mph54%30.09 "HgN/A
11:00 AM75 °FPartly sunny.13 mph61%30.12 "HgN/A
10:30 AM77 °FPassing clouds.10 mph54%30.12 "HgN/A
10:00 AM77 °FScattered clouds.12 mph57%30.12 "HgN/A
9:30 AM75 °FPassing clouds.9 mph57%30.12 "HgN/A
9:00 AM73 °FPassing clouds.6 mph65%30.12 "HgN/A
8:30 AM72 °FPassing clouds.3 mph69%30.12 "HgN/A
8:00 AM72 °FPassing clouds.3 mph65%30.12 "HgN/A
7:30 AM70 °FPassing clouds.5 mph64%30.09 "HgN/A
7:00 AM70 °FPassing clouds.3 mph64%30.09 "HgN/A
6:30 AM68 °FPassing clouds.3 mph69%30.09 "HgN/A
6:00 AM68 °FPassing clouds.3 mph69%30.09 "HgN/A
5:30 AM68 °FPassing clouds.5 mph69%30.07 "HgN/A
5:00 AM66 °FPassing clouds.3 mph73%30.07 "HgN/A
4:30 AM64 °FPassing clouds.2 mph78%30.07 "HgN/A
4:00 AM66 °FPassing clouds.3 mph73%30.09 "HgN/A
3:30 AM66 °FPassing clouds.2 mph73%30.09 "HgN/A
3:00 AM66 °FPassing clouds.2 mph73%30.09 "HgN/A
2:30 AM68 °FPassing clouds.2 mph69%30.09 "HgN/A
2:00 AM68 °FPassing clouds.2 mph69%30.09 "HgN/A
1:30 AM68 °FPassing clouds.1 mph69%30.09 "HgN/A
1:00 AM68 °FPassing clouds.5 mph69%30.12 "HgN/A
12:30 AM68 °FPassing clouds.5 mph69%30.12 "HgN/A
12:00 AM68 °FPassing clouds.5 mph69%30.12 "HgN/A
11:30 PM
Nov 20
68 °FPassing clouds.2 mph64%30.12 "HgN/A
11:00 PM70 °FPassing clouds.3 mph60%30.12 "HgN/A
10:30 PM70 °FPassing clouds.5 mph60%30.12 "HgN/A
10:00 PM70 °FPassing clouds.5 mph60%30.12 "HgN/A
9:30 PM70 °FPassing clouds.6 mph60%30.12 "HgN/A
9:00 PM70 °FPassing clouds.6 mph60%30.12 "HgN/A
8:30 PM70 °FPassing clouds.6 mph60%30.12 "HgN/A
8:00 PM70 °FPassing clouds.7 mph60%30.12 "HgN/A
7:30 PM72 °FPassing clouds.9 mph57%30.12 "HgN/A
7:00 PM72 °FPassing clouds.8 mph53%30.09 "HgN/A
6:30 PM72 °FPassing clouds.9 mph53%30.09 "HgN/A
6:00 PM72 °FPassing clouds.9 mph53%30.09 "HgN/A
5:30 PM73 °FPassing clouds.10 mph53%30.09 "HgN/A
5:00 PM73 °FPassing clouds.10 mph53%30.09 "HgN/A
Weather by CustomWeather, © 2014

See weather overviewHow to use our weather pages